• In Portugal
  • List of Countries
  • For 7 days
  • Water Temperature
  • Satellite Maps
  • Weather Map
  • Weather Widgets
  • user-avatar
    Login

    Hourly Weather Mercin

    Today, 20 October, Friday

    Time Temperature Precipitation Wind Pressure Humidity
    00:00 +21°C° 0 mm 2 mps 761 mmHg 25%
    01:00 +20°C° 0 mm 2 mps 761 mmHg 25%
    02:00 +20°C° 0 mm 2 mps 761 mmHg 24%
    03:00 +20°C° 0 mm 2 mps 761 mmHg 25%
    04:00 +19°C° 0 mm 2 mps 761 mmHg 26%
    05:00 +19°C° 0 mm 2 mps 761 mmHg 26%
    06:00 +21°C° 0 mm 2 mps 761 mmHg 23%
    07:00 +25°C° 0 mm 2 mps 761 mmHg 20%
    08:00 +27°C° 0 mm 2 mps 761 mmHg 16%
    09:00 +28°C° 0 mm 2 mps 761 mmHg 16%
    10:00 +30°C° 0 mm 2 mps 761 mmHg 15%
    11:00 +31°C° 0 mm 2 mps 761 mmHg 14%
    12:00 +31°C° 0 mm 2 mps 761 mmHg 14%
    13:00 +31°C° 0 mm 2 mps 761 mmHg 14%
    14:00 +31°C° 0 mm 2 mps 760 mmHg 15%
    15:00 +29°C° 0 mm 2 mps 760 mmHg 18%
    16:00 +27°C° 0 mm 2 mps 760 mmHg 22%
    17:00 +25°C° 0 mm 2 mps 760 mmHg 25%
    18:00 +25°C° 0 mm 2 mps 761 mmHg 25%
    19:00 +24°C° 0 mm 2 mps 761 mmHg 25%
    20:00 +23°C° 0 mm 2 mps 761 mmHg 25%
    21:00 +23°C° 0 mm 2 mps 761 mmHg 24%
    22:00 +23°C° 0 mm 1 mps 761 mmHg 24%
    23:00 +22°C° 0 mm 1 mps 761 mmHg 23%

    Tomorrow, 21 October, Saturday

    Time Temperature Precipitation Wind Pressure Humidity
    00:00 +22°C° 0 mm 1 mps 761 mmHg 24%
    01:00 +21°C° 0 mm 1 mps 761 mmHg 24%
    02:00 +20°C° 0 mm 2 mps 761 mmHg 24%
    03:00 +20°C° 0 mm 2 mps 761 mmHg 25%
    04:00 +19°C° 0 mm 2 mps 760 mmHg 26%
    05:00 +19°C° 0 mm 2 mps 760 mmHg 27%
    06:00 +22°C° 0 mm 1 mps 760 mmHg 24%
    07:00 +24°C° 0 mm 1 mps 761 mmHg 20%
    08:00 +27°C° 0 mm 1 mps 761 mmHg 17%
    09:00 +28°C° 0 mm 2 mps 761 mmHg 16%
    10:00 +29°C° 0 mm 2 mps 760 mmHg 15%
    11:00 +30°C° 0 mm 2 mps 760 mmHg 15%
    12:00 +30°C° 0 mm 2 mps 760 mmHg 15%
    13:00 +31°C° 0 mm 2 mps 759 mmHg 15%
    14:00 +31°C° 0 mm 3 mps 759 mmHg 16%
    15:00 +29°C° 0 mm 3 mps 759 mmHg 21%
    16:00 +27°C° 0 mm 3 mps 759 mmHg 26%
    17:00 +25°C° 0 mm 3 mps 759 mmHg 31%
    18:00 +24°C° 0 mm 2 mps 759 mmHg 31%
    19:00 +23°C° 0 mm 2 mps 759 mmHg 32%
    20:00 +23°C° 0 mm 2 mps 759 mmHg 33%
    21:00 +21°C° 0 mm 2 mps 759 mmHg 32%
    22:00 +22°C° 0 mm 1 mps 759 mmHg 32%
    23:00 +21°C° 0 mm 1 mps 759 mmHg 32%

    Day after tomorrow, 22 October, Sunday

    Time Temperature Precipitation Wind Pressure Humidity
    00:00 +21°C° 0 mm 1 mps 759 mmHg 32%
    01:00 +20°C° 0 mm 1 mps 759 mmHg 32%
    02:00 +19°C° 0 mm 2 mps 759 mmHg 32%
    03:00 +19°C° 0 mm 2 mps 759 mmHg 32%
    04:00 +19°C° 0 mm 2 mps 759 mmHg 32%
    05:00 +18°C° 0 mm 2 mps 758 mmHg 32%
    06:00 +20°C° 0 mm 2 mps 759 mmHg 28%
    07:00 +23°C° 0 mm 2 mps 759 mmHg 25%
    08:00 +25°C° 0 mm 2 mps 759 mmHg 21%
    09:00 +26°C° 0 mm 2 mps 759 mmHg 21%
    10:00 +28°C° 0 mm 2 mps 759 mmHg 21%
    11:00 +29°C° 0 mm 2 mps 758 mmHg 22%
    12:00 +29°C° 0 mm 2 mps 758 mmHg 22%
    13:00 +29°C° 0 mm 3 mps 758 mmHg 23%
    14:00 +30°C° 0 mm 3 mps 757 mmHg 24%
    15:00 +28°C° 0 mm 3 mps 757 mmHg 31%
    16:00 +26°C° 0 mm 3 mps 757 mmHg 38%
    17:00 +24°C° 0 mm 3 mps 757 mmHg 46%
    18:00 +23°C° 0 mm 2 mps 757 mmHg 46%
    19:00 +21°C° 0 mm 2 mps 758 mmHg 47%
    20:00 +22°C° 0 mm 1 mps 758 mmHg 48%
    21:00 +21°C° 0 mm 1 mps 758 mmHg 47%
    22:00 +21°C° 0 mm 1 mps 758 mmHg 47%
    23:00 +20°C° 0 mm 1 mps 758 mmHg 46%

    23 October, Monday

    Time Temperature Precipitation Wind Pressure Humidity
    00:00 +20°C° 0 mm 1 mps 758 mmHg 46%
    01:00 +20°C° 0 mm 1 mps 758 mmHg 46%
    02:00 +19°C° 0 mm 1 mps 758 mmHg 45%
    03:00 +19°C° 0 mm 1 mps 758 mmHg 46%
    04:00 +19°C° 0 mm 1 mps 758 mmHg 47%
    05:00 +18°C° 0 mm 1 mps 758 mmHg 48%
    06:00 +20°C° 0 mm 1 mps 758 mmHg 43%
    07:00 +21°C° 0 mm 2 mps 758 mmHg 37%
    08:00 +25°C° 0 mm 2 mps 758 mmHg 32%
    09:00 +26°C° 0 mm 2 mps 758 mmHg 30%
    10:00 +27°C° 0 mm 2 mps 758 mmHg 29%
    11:00 +28°C° 0 mm 2 mps 757 mmHg 28%
    12:00 +28°C° 0 mm 2 mps 757 mmHg 29%
    13:00 +28°C° 0 mm 2 mps 756 mmHg 31%
    14:00 +28°C° 0 mm 2 mps 756 mmHg 33%
    15:00 +27°C° 0 mm 2 mps 756 mmHg 41%
    16:00 +25°C° 0 mm 2 mps 756 mmHg 49%
    17:00 +23°C° 0 mm 2 mps 756 mmHg 57%
    18:00 +23°C° 0 mm 2 mps 756 mmHg 60%
    19:00 +21°C° 0 mm 2 mps 757 mmHg 62%
    20:00 +21°C° 0 mm 1 mps 757 mmHg 64%
    21:00 +20°C° 0 mm 2 mps 757 mmHg 60%
    22:00 +19°C° 0 mm 2 mps 757 mmHg 56%
    23:00 +19°C° 0 mm 2 mps 757 mmHg 52%

    24 October, Tuesday

    Time Temperature Precipitation Wind Pressure Humidity
    00:00 +19°C° 0 mm 2 mps 757 mmHg 50%
    01:00 +19°C° 0 mm 2 mps 757 mmHg 48%
    02:00 +18°C° 0 mm 3 mps 757 mmHg 46%
    03:00 +18°C° 0 mm 3 mps 757 mmHg 46%
    04:00 +18°C° 0 mm 3 mps 757 mmHg 47%
    05:00 +18°C° 0 mm 3 mps 757 mmHg 47%
    06:00 +20°C° 0 mm 3 mps 757 mmHg 45%
    07:00 +21°C° 0 mm 3 mps 757 mmHg 44%
    08:00 +22°C° 0 mm 3 mps 758 mmHg 42%
    09:00 +24°C° 0 mm 3 mps 757 mmHg 41%
    10:00 +26°C° 0 mm 3 mps 757 mmHg 39%
    11:00 +27°C° 0 mm 3 mps 757 mmHg 38%
    12:00 +27°C° 0 mm 3 mps 757 mmHg 37%
    13:00 +27°C° 0 mm 3 mps 756 mmHg 36%
    14:00 +27°C° 0 mm 2 mps 756 mmHg 35%
    15:00 +26°C° 0 mm 2 mps 756 mmHg 37%
    16:00 +25°C° 0 mm 2 mps 756 mmHg 39%
    17:00 +23°C° 0 mm 2 mps 756 mmHg 41%
    18:00 +23°C° 0 mm 2 mps 757 mmHg 40%
    19:00 +21°C° 0 mm 3 mps 757 mmHg 40%
    20:00 +21°C° 0 mm 3 mps 757 mmHg 39%
    21:00 +20°C° 0 mm 3 mps 757 mmHg 41%
    22:00 +20°C° 0 mm 3 mps 758 mmHg 43%
    23:00 +20°C° 0 mm 3 mps 758 mmHg 44%

    25 October, Wednesday

    Time Temperature Precipitation Wind Pressure Humidity
    00:00 +19°C° 0 mm 3 mps 758 mmHg 45%
    01:00 +19°C° 0 mm 3 mps 758 mmHg 46%
    02:00 +19°C° 0 mm 3 mps 758 mmHg 47%
    03:00 +19°C° 0 mm 3 mps 758 mmHg 48%
    04:00 +19°C° 0 mm 3 mps 758 mmHg 50%
    05:00 +19°C° 0 mm 3 mps 758 mmHg 51%
    06:00 +20°C° 0 mm 3 mps 759 mmHg 49%
    07:00 +21°C° 0 mm 3 mps 759 mmHg 47%
    08:00 +22°C° 0 mm 3 mps 759 mmHg 45%
    09:00 +25°C° 0 mm 3 mps 759 mmHg 42%
    10:00 +26°C° 0 mm 3 mps 759 mmHg 40%
    11:00 +27°C° 0 mm 3 mps 759 mmHg 38%
    12:00 +27°C° 0 mm 3 mps 759 mmHg 39%
    13:00 +27°C° 0 mm 3 mps 758 mmHg 39%
    14:00 +27°C° 0 mm 3 mps 758 mmHg 39%
    15:00 +26°C° 0 mm 2 mps 758 mmHg 43%
    16:00 +25°C° 0 mm 2 mps 759 mmHg 47%
    17:00 +23°C° 0 mm 2 mps 759 mmHg 51%
    18:00 +23°C° 0.1 mm 2 mps 760 mmHg 52%
    19:00 +23°C° 0.1 mm 2 mps 760 mmHg 54%
    20:00 +21°C° 0.1 mm 2 mps 760 mmHg 55%
    21:00 +21°C° 0.1 mm 2 mps 761 mmHg 57%
    22:00 +21°C° 0.1 mm 2 mps 761 mmHg 59%
    23:00 +20°C° 0.1 mm 2 mps 761 mmHg 61%
    Show more